Weather History for Mackinac Island, MI

Change the Weather History Date:

Sunday, April 28, 2013

  Actual Average Record
Temperature  
Mean Temperature 48 °F -  
Max Temperature 58 °F 51 °F 72 °F (1990)
Min Temperature 37 °F 34 °F 25 °F (1982)
Degree Days  
Heating Degree Days 18    
Moisture  
Dew Point 38 °F    
Average Humidity 72    
Maximum Humidity 92    
Minimum Humidity 54    
Precipitation  
Precipitation 0.00 in - - ()
Sea Level Pressure  
Sea Level Pressure 29.95 in    
Wind  
Wind Speed 7 mph (ESE)    
Max Wind Speed 20 mph    
Max Gust Speed 26 mph    
Visibility 10 miles    
Events      
Averages and records for this station are not official NWS values.
T = Trace of Precipitation, MM = Missing Value Source: NWS Daily Summary

Daily Weather History Graph

Daily Weather History Graph

Search for Another Location

Airport:

Trip Planner

Search our weather history database for the weather conditions in past years. The results will help you decide how hot, cold, wet, or windy it might be!

Date:

Astronomy

Apr. 28, 2013 Rise Set
Actual Time 6:30 AM EDT 8:42 PM EDT
Civil Twilight 5:57 AM EDT 9:15 PM EDT
Nautical Twilight 5:17 AM EDT 9:56 PM EDT
Astronomical Twilight 4:31 AM EDT 10:41 PM EDT
Moon No Moon Rise 8:39 AM EDT (4/28)
Length of Visible Light 15h 18m
Length of Day
14h 12m
Waning Gibbous, 89% of the Moon is Illuminated
Apr 28
Waning Gibbous
May 2
Last Quarter
May 9
New
May 18
First Quarter
May 25
Full

Hourly Weather History & Observations

Time (EDT) Temp. Windchill Dew Point Humidity Pressure Visibility Wind Dir Wind Speed Gust Speed Precip Events Conditions
12:15 AM 46.6 °F - 40.1 °F 78% 30.08 in 10.0 mi ESE 6.9 mph - N/A   Clear
12:35 AM 46.2 °F 43.3 °F 39.4 °F 77% 30.08 in 10.0 mi SSE 5.8 mph - N/A   Clear
12:55 AM 46.2 °F 44.1 °F 39.6 °F 78% 30.07 in 10.0 mi SE 4.6 mph - N/A   Clear
1:15 AM 45.5 °F 43.2 °F 39.2 °F 79% 30.07 in 10.0 mi SSE 4.6 mph - N/A   Clear
1:35 AM 45.0 °F 43.5 °F 38.8 °F 79% 30.07 in 10.0 mi East 3.5 mph - N/A   Clear
1:55 AM 47.1 °F - 39.4 °F 74% 30.06 in 10.0 mi ESE 9.2 mph - N/A   Clear
2:15 AM 46.8 °F - 38.7 °F 73% 30.05 in 10.0 mi ESE 5.8 mph - N/A   Clear
2:36 AM 45.3 °F 41.6 °F 38.7 °F 78% 30.05 in 10.0 mi SE 6.9 mph - N/A   Clear
2:55 AM 43.2 °F 38.4 °F 37.8 °F 81% 30.04 in 10.0 mi SE 8.1 mph - N/A   Clear
3:15 AM 47.7 °F - 38.7 °F 71% 30.04 in 10.0 mi SE 6.9 mph - N/A   Clear
3:36 AM 46.6 °F - 38.7 °F 74% 30.03 in 10.0 mi SE 9.2 mph - N/A   Clear
3:55 AM 43.2 °F - 37.8 °F 81% 30.03 in 10.0 mi Calm Calm - N/A   Clear
4:15 AM 40.5 °F 35.8 °F 36.0 °F 84% 30.02 in 10.0 mi ESE 6.9 mph - N/A   Clear
4:36 AM 43.0 °F 39.5 °F 37.0 °F 80% 30.02 in 10.0 mi SE 5.8 mph - N/A   Clear
4:55 AM 40.1 °F 36.1 °F 35.2 °F 83% 30.02 in 10.0 mi SE 5.8 mph - N/A   Clear
5:15 AM 38.7 °F 35.2 °F 35.4 °F 88% 30.02 in 10.0 mi SSE 4.6 mph - N/A   Clear
5:36 AM 38.3 °F 34.8 °F 35.4 °F 89% 30.01 in 10.0 mi South 4.6 mph - N/A   Clear
5:55 AM 38.3 °F 33.9 °F 35.8 °F 91% 30.00 in 10.0 mi SSE 5.8 mph - N/A   Clear
6:15 AM 37.2 °F 33.6 °F 34.5 °F 90% 30.00 in 7.0 mi SSE 4.6 mph - N/A   Clear
6:35 AM 37.4 °F 34.9 °F 35.1 °F 91% 30.00 in 5.0 mi SSE 3.5 mph - N/A   Clear
6:55 AM 37.8 °F 33.3 °F 35.6 °F 92% 30.00 in 5.0 mi SE 5.8 mph - N/A   Clear
7:15 AM 38.5 °F 33.4 °F 36.3 °F 92% 30.01 in 7.0 mi SE 6.9 mph - N/A   Clear
7:36 AM 40.3 °F 36.3 °F 37.6 °F 90% 30.01 in 10.0 mi ESE 5.8 mph - N/A   Clear
7:55 AM 41.2 °F 38.2 °F 37.8 °F 88% 30.02 in 10.0 mi ESE 4.6 mph - N/A   Clear
8:15 AM 42.3 °F 39.4 °F 37.8 °F 84% 30.02 in 10.0 mi East 4.6 mph - N/A   Clear
8:35 AM 42.4 °F 40.7 °F 37.9 °F 84% 30.02 in 10.0 mi East 3.5 mph - N/A   Clear
9:15 AM 45.5 °F 44.2 °F 38.3 °F 76% 30.01 in 10.0 mi East 3.5 mph - N/A   Clear
9:35 AM 47.8 °F - 39.2 °F 72% 30.01 in 10.0 mi Calm Calm - N/A   Clear
9:55 AM 50.4 °F - 39.0 °F 65% 30.00 in 10.0 mi East 3.5 mph - N/A   Scattered Clouds
10:15 AM 50.7 °F - 38.5 °F 63% 30.00 in 10.0 mi Calm Calm - N/A   Mostly Cloudy
10:35 AM 49.5 °F - 38.3 °F 65% 30.00 in 10.0 mi East 3.5 mph - N/A   Overcast
10:55 AM 51.1 °F - 38.8 °F 63% 29.99 in 10.0 mi Calm Calm - N/A   Overcast
11:16 AM 53.2 °F - 38.3 °F 57% 29.98 in 10.0 mi Calm Calm - N/A   Overcast
11:35 AM 53.8 °F - 38.8 °F 57% 29.98 in 10.0 mi ESE 5.8 mph - N/A   Overcast
11:55 AM 53.1 °F - 38.3 °F 57% 29.98 in 10.0 mi Calm Calm - N/A   Overcast
12:15 PM 53.2 °F - 37.8 °F 56% 29.97 in 10.0 mi East 5.8 mph - N/A   Overcast
12:35 PM 53.8 °F - 37.6 °F 54% 29.97 in 10.0 mi East 5.8 mph - N/A   Overcast
12:55 PM 52.9 °F - 36.9 °F 55% 29.96 in 10.0 mi ESE 12.7 mph 18.4 mph N/A   Overcast
1:16 PM 52.2 °F - 36.3 °F 55% 29.95 in 10.0 mi East 13.8 mph 20.7 mph N/A   Overcast
1:35 PM 51.3 °F - 36.0 °F 56% 29.95 in 10.0 mi East 15.0 mph 20.7 mph N/A   Overcast
1:55 PM 50.0 °F - 36.3 °F 59% 29.95 in 10.0 mi East 13.8 mph 20.7 mph N/A   Overcast
2:15 PM 47.3 °F - 36.5 °F 66% 29.94 in 10.0 mi East 11.5 mph 21.9 mph N/A   Overcast
2:35 PM 47.3 °F - 37.0 °F 68% 29.93 in 10.0 mi East 10.4 mph 17.3 mph N/A   Overcast
2:55 PM 46.9 °F - 37.2 °F 69% 29.92 in 10.0 mi East 12.7 mph 20.7 mph N/A   Overcast
3:15 PM 47.5 °F - 37.2 °F 68% 29.92 in 10.0 mi East 15.0 mph 23.0 mph N/A   Overcast
3:35 PM 48.2 °F - 36.9 °F 65% 29.91 in 10.0 mi East 17.3 mph 23.0 mph N/A   Mostly Cloudy
3:55 PM 47.5 °F - 37.0 °F 67% 29.90 in 10.0 mi East 17.3 mph 23.0 mph N/A   Mostly Cloudy
4:15 PM 46.8 °F - 37.0 °F 69% 29.89 in 10.0 mi East 18.4 mph 25.3 mph N/A   Mostly Cloudy
4:35 PM 46.8 °F - 37.0 °F 69% 29.89 in 10.0 mi East 19.6 mph 26.5 mph N/A   Overcast
4:55 PM 47.3 °F - 37.4 °F 68% 29.88 in 10.0 mi East 17.3 mph 24.2 mph N/A   Overcast
5:15 PM 47.3 °F - 37.4 °F 68% 29.87 in 10.0 mi East 17.3 mph 26.5 mph N/A   Overcast
5:35 PM 45.7 °F 38.8 °F 37.2 °F 72% 29.87 in 10.0 mi East 16.1 mph 25.3 mph N/A   Mostly Cloudy
5:55 PM 46.4 °F 39.5 °F 37.6 °F 71% 29.86 in 10.0 mi East 17.3 mph 24.2 mph N/A   Mostly Cloudy
6:15 PM 46.2 °F 39.3 °F 37.8 °F 72% 29.85 in 10.0 mi East 17.3 mph 21.9 mph N/A   Scattered Clouds
6:35 PM 45.5 °F 39.2 °F 37.6 °F 74% 29.85 in 10.0 mi East 13.8 mph 20.7 mph N/A   Clear
6:55 PM 44.6 °F 38.1 °F 37.6 °F 76% 29.84 in 10.0 mi East 13.8 mph 21.9 mph N/A   Clear
7:15 PM 44.4 °F 39.0 °F 37.8 °F 77% 29.83 in 10.0 mi East 10.4 mph 16.1 mph N/A   Clear
7:35 PM 45.0 °F 40.1 °F 38.3 °F 77% 29.83 in 10.0 mi East 9.2 mph - N/A   Mostly Cloudy
8:15 PM 48.4 °F - 39.6 °F 72% 29.82 in 10.0 mi ESE 9.2 mph - N/A   Overcast
8:35 PM 51.1 °F - 40.8 °F 68% 29.82 in 10.0 mi ESE 5.8 mph - N/A   Overcast
8:55 PM 53.4 °F - 41.9 °F 65% 29.82 in 10.0 mi SE 6.9 mph - N/A   Scattered Clouds
9:15 PM 54.3 °F - 42.3 °F 64% 29.83 in 10.0 mi SE 8.1 mph - N/A   Scattered Clouds
9:35 PM 58.1 °F - 43.3 °F 58% 29.84 in 10.0 mi SE 8.1 mph 17.3 mph N/A   Scattered Clouds
9:55 PM 58.5 °F - 43.7 °F 58% 29.84 in 10.0 mi SE 10.4 mph 19.6 mph N/A   Clear
10:15 PM 58.5 °F - 44.1 °F 59% 29.85 in 10.0 mi SE 10.4 mph 18.4 mph N/A   Clear
10:36 PM 58.1 °F - 44.2 °F 60% 29.85 in 10.0 mi SE 9.2 mph 17.3 mph N/A   Clear
10:55 PM 57.7 °F - 44.8 °F 62% 29.84 in 10.0 mi SE 11.5 mph 18.4 mph N/A   Clear
11:15 PM 57.0 °F - 45.0 °F 64% 29.84 in 10.0 mi SE 10.4 mph 16.1 mph N/A   Clear
11:55 PM 56.3 °F - 45.9 °F 68% 29.83 in 10.0 mi SE 9.2 mph 16.1 mph N/A   Clear